Location: Alfortville
(48.8058°N, 2.4204°E)
Time: 19:39:27
(UTC+00:00)

SL-16 R/B - Visible Passes

Search period start: 25 May 2022 00:00
Search period end: 04 June 2022 00:00
Orbit: 842 x 846 km, 71.0° (Epoch: 24 May)

Date Brightness Start Highest point End Pass type
(mag) Time Alt. Az. Time Alt. Az. Time Alt. Az.
25 May 4.8 01:13:29 10° NW 01:16:02 13° NNW 01:18:35 10° N visible
25 May 2.9 21:28:34 19° SSE 21:31:57 35° ESE 21:37:03 10° NE visible
25 May 3.2 23:10:32 10° SW 23:15:57 45° NW 23:21:25 10° NNE visible
26 May 4.8 00:58:59 10° WNW 01:01:37 13° NNW 01:04:16 10° N visible
26 May 2.9 21:13:28 14° SSE 21:17:37 34° ESE 21:22:40 10° NE visible
26 May 3.1 22:56:07 10° SW 23:01:35 46° NW 23:07:03 10° NNE visible
27 May 4.8 00:44:28 10° WNW 00:47:12 13° NNW 00:49:58 10° N visible
27 May 2.9 20:58:18 10° SSE 21:03:16 33° ESE 21:08:16 10° NE visible
27 May 3.1 22:41:44 10° SW 22:47:12 48° NW 22:52:43 10° NNE visible
28 May 4.9 00:29:58 10° WNW 00:32:48 14° NNW 00:35:39 10° N visible
28 May 3.0 20:44:00 10° SSE 20:48:56 32° ESE 20:53:53 10° NE visible
28 May 3.1 22:27:20 10° SW 22:32:50 49° NW 22:38:21 10° NNE visible
29 May 4.9 00:15:28 10° WNW 00:18:23 14° NNW 00:21:20 10° N visible
29 May 3.0 20:29:43 10° SSE 20:34:35 30° ESE 20:39:29 10° NE visible
29 May 3.0 22:12:56 10° SW 22:18:27 51° NW 22:24:00 10° NNE visible
30 May 4.9 00:00:57 10° WNW 00:03:59 14° NNW 00:07:01 10° N visible
30 May 3.1 20:15:26 10° SSE 20:20:15 29° ESE 20:25:05 10° NE visible
30 May 3.0 21:58:32 10° SW 22:04:04 53° NW 22:09:39 10° NNE visible
30 May 4.9 23:46:28 10° WNW 23:49:34 15° NNW 23:52:42 10° N visible
31 May 3.0 21:44:09 10° SW 21:49:42 54° NW 21:55:17 10° NNE visible
31 May 5.0 23:31:58 10° WNW 23:35:10 15° NNW 23:38:22 10° N visible
01 Jun 5.6 03:08:22 10° NNE 03:09:25 10° NNE 03:10:27 10° NE visible
01 Jun 2.9 21:29:45 10° SW 21:35:19 56° WNW 21:40:56 10° NNE visible
01 Jun 5.0 23:17:28 10° WNW 23:20:45 15° NNW 23:24:03 10° N visible
02 Jun 5.7 02:54:12 10° NNE 02:54:59 10° NNE 02:55:46 10° NNE visible
02 Jun 2.9 21:15:22 10° SW 21:20:57 58° WNW 21:26:35 10° NNE visible
02 Jun 5.0 23:02:59 10° WNW 23:06:20 16° NW 23:09:43 10° N visible
03 Jun 5.7 02:40:12 10° NNE 02:40:34 10° NNE 02:40:55 10° NNE visible
03 Jun 2.9 21:00:58 10° SW 21:06:34 60° WNW 21:12:13 10° NNE visible
03 Jun 5.1 22:48:30 10° WNW 22:51:56 16° NW 22:55:23 10° N visible
